Regional Weather Roundup
Issued by NWS

Home | Current Version | Previous Version | Text Only | Print | Product List | Glossary Off
Versions: 1 2 3 4 5 6 7 8 9 10 11 12 13 14 15 16 17 18 19 20 21 22 23 24 25 26 27 28 29 30 31 32 33 34 35 36 37 38 39 40 41 42 43 44 45 46 47 48 49 50

000
ASUS43 KOAX 261610
RWRNE

WEATHER ROUNDUP FOR NEBRASKA
NATIONAL WEATHER SERVICE OMAHA NE
1100 AM CDT SUN APR 26 2015

NOTES: SATELLITE DATA IS BEING USED TO AUGMENT CLOUD COVER ABOVE
       12000 FEET.
       "FAIR" INDICATES FEW OR NO CLOUDS BELOW 12,000 FEET WITH NO
       SIGNIFICANT WEATHER AND/OR OBSTRUCTIONS TO VISIBILITY.

  * THESE STATIONS DO NOT REPORT WEATHER SUCH AS RAIN...SNOW OR FOG.

NEZ001>004-019>022-054>056-261700-
NEBRASKA PANHANDLE

CITY           SKY/WX    TMP DP  RH WIND       PRES   REMARKS
SCOTTSBLUFF    LGT RAIN  45  32  60 E13       29.92R VSB 3/4
ALLIANCE       CLOUDY    43  42  97 SE16      29.94R FOG
CHADRON        CLOUDY    48  45  89 E9        29.93R FOG
KIMBALL        RAIN      43  42  97 SE10      29.91R
SIDNEY         CLOUDY    42  41  96 SE12      29.94R FOG
$$

NEZ057>060-069>072-079>082-261700-
SOUTHWEST NEBRASKA

CITY           SKY/WX    TMP DP  RH WIND       PRES   REMARKS
IMPERIAL       CLOUDY    43  41  93 E17       29.94R FOG
LEXINGTON      CLOUDY    45  42  90 E14       29.99R
MCCOOK         CLOUDY    45  42  89 E13       29.96R FOG
OGALLALA       CLOUDY    43  42  97 E13       29.95S
$$

NEZ005>010-023>029-035>040-094-261700-
NORTH CENTRAL NEBRASKA

CITY           SKY/WX    TMP DP  RH WIND       PRES   REMARKS
VALENTINE      CLOUDY    48  37  65 SE17      30.02R
AINSWORTH      CLOUDY    46  39  75 SE14      30.03S
BROKEN BOW     CLOUDY    47  39  74 E17G26    30.00R
O`NEILL        MOSUNNY   54  39  58 E9G16     30.05R
ORD            MOSUNNY   51  38  60 E14G21    30.01R
THEDFORD       CLOUDY    46  42  88 E12       30.00S
$$

NEZ041-046>049-061>064-073>077-083>087-261700-
SOUTH CENTRAL NEBRASKA

CITY           SKY/WX    TMP DP  RH WIND       PRES   REMARKS
GRAND ISLAND   PTSUNNY   51  40  65 E15G25    30.01F
AURORA         MOSUNNY   50  42  74 E17       30.01S
HASTINGS       CLOUDY    50  41  71 E18       29.98F
HEBRON         CLOUDY    48  42  79 E8        30.00S
HOLDREGE       CLOUDY    44  41  90 E17       29.98R FOG
KEARNEY *      CLOUDY    48  39  71 E18       29.99S
YORK           MOSUNNY   52  43  71 E15       30.03R
$$

NEZ011>018-030>034-042>045-261700-
NORTHEAST NEBRASKA

CITY           SKY/WX    TMP DP  RH WIND       PRES   REMARKS
NORFOLK        SUNNY     53  32  44 E16G24    30.05R
ALBION         SUNNY     52  38  60 E15G21    30.04S
BLAIR          PTSUNNY   52  40  64 E10       30.06R
COLUMBUS *     MOSUNNY   52  37  58 E15G21    30.07R
FREMONT        MOSUNNY   53  40  62 E9G16     30.06S
TEKAMAH        SUNNY     56  37  49 E14       30.07R
WAYNE          SUNNY     55  32  41 E10G18    30.07S
$$

NEZ050>053-065>068-078-088>093-261700-
SOUTHEAST NEBRASKA

CITY           SKY/WX    TMP DP  RH WIND       PRES   REMARKS
LINCOLN        MOSUNNY   52  40  63 E16       30.05R
OMAHA EPPLEY   PTSUNNY   52  40  63 E14       30.06R
BEATRICE       CLOUDY    48  42  78 NE13      30.02R
FALLS CITY     CLOUDY    49  41  74 E10       30.02R
NEBRASKA CITY  MOSUNNY   52  38  60 E15       30.03S
PLATTSMOUTH    MOSUNNY   52  38  59 NE14      30.05R
$$

NEZ044-045-051>053-067-261700-
OMAHA AREA

CITY           SKY/WX    TMP DP  RH WIND       PRES   REMARKS
OMAHA EPPLEY   PTSUNNY   52  40  63 E14       30.06R
BLAIR          PTSUNNY   52  40  64 E10       30.06R
FREMONT        MOSUNNY   53  40  62 E9G16     30.06S
MILLARD        PTSUNNY   51  40  65 NE7       30.06R
OFFUTT AFB     MOSUNNY   54  41  62 E12       30.05R
PLATTSMOUTH    MOSUNNY   52  38  59 NE14      30.05R
WAHOO          PTSUNNY   53  40  62 NE12      30.05S
$$



USA.gov is the U.S. government's official web portal to all federal, state and local government web resources and services.